Simultaneous Nadir Overpasses (SNOs) Predictions

Prediction of SNOs between METOP-A and NOAA-19 Satellite Orbit:

Table of predicted SNOs for the next 14.0 days since TLE Epoch: 5/11/2018
Index Date (METOP-A) Time (METOP-A) Lat,Lon (METOP-A) SZA (METOP-A ) Date (NOAA-19) Time (NOAA-19) Lat,Lon (NOAA-19) SZA (NOAA-19 ) Distance(km) Time Diff (sec)
1 05/20/2018 08:24:11 -78.63,-116.87 121.24 05/20/2018 08:23:00 -78.64,-118.64 121.31 38.99 71
2 05/20/2018 09:14:55 78.48, 49.55 58.57 05/20/2018 09:13:53 78.47, 49.71 58.56 3.74 62
3 05/20/2018 10:05:36 -78.50,-143.01 121.42 05/20/2018 10:04:57 -78.49,-143.15 121.44 3.29 39
4 05/20/2018 10:56:16 78.50, 24.31 58.58 05/20/2018 10:55:54 78.47, 24.25 58.54 3.43 22
5 05/20/2018 11:46:58 -78.48,-168.47 121.46 05/20/2018 11:46:58 -78.48,-168.61 121.46 3.13 0
6 05/20/2018 12:37:38 78.47, -1.15 58.54 05/20/2018 12:37:55 78.46, -1.21 58.52 2.05 17
7 05/20/2018 13:28:20 -78.46, 166.07 121.50 05/20/2018 13:28:58 -78.44, 166.17 121.50 2.85 38
8 05/20/2018 14:19:00 78.45, -26.61 58.50 05/20/2018 14:19:56 78.45, -26.67 58.51 1.40 56
9 05/20/2018 15:09:45 -78.32, 139.95 121.67 05/20/2018 15:10:57 -78.36, 141.17 121.58 27.85 72




NCC Satellite Simultaneous Nadir Overpasses (SNOs) Prediction Service
